CAPE
25 0 0 0 0 0 0 130 306 121 261 0 0 0 0 1 2 26 0 0 0 150 795 1610 2486 2347 1909 1870 1593 1816 2062 1834 2187 2138 2210 2222 2109 1758 1943 1529 1498 2104 1656 1709 2038 2077 2333 2297 2293
0 0 0 3 0 2 39 90 165 191 52 0 13 70 132 25 0 0 1 0 10 375 1201 1617 2229 2456 2261 1881 1759 2093 1985 1978 2380 2219 2193 2142 2024 2156 1999 2100 1553 1628 1614 1634 1759 2023 2142 2161 2405
0 0 0 22 19 2 104 93 137 7 44 19 33 32 84 3 0 0 0 0 165 875 1250 1592 2316 2260 2109 2041 1928 2088 2110 1922 2194 2081 1995 2042 2123 2093 2074 1915 1786 1549 1644 1648 1650 1879 1876 2047 2104
0 27 17 3 5 24 71 56 51 106 173 84 62 32 10 3 0 3 0 69 595 878 1195 2081 2149 2262 2251 2010 1989 2159 2128 2143 2118 1984 2103 1801 1780 1686 1658 1695 1691 1608 1474 1652 1800 1909 1922 1943 1860
32 33 35 139 82 165 82 27 146 211 195 124 95 2 8 9 0 0 13 314 581 640 1082 1710 2400 2183 2281 1963 1930 1888 2001 1945 1808 1865 1961 1929 1486 1691 1615 1622 1397 1520 1379 1465 1648 1563 1562 1584 1829
20 1 112 78 118 358 126 102 185 194 203 122 2 2 18 2 0 0 87 348 483 832 1094 1531 2024 1731 1664 1983 1952 1906 1973 1883 1789 1852 1729 1846 1572 1492 1566 1671 1662 1393 1377 1540 1404 1440 1722 1918 1993
18 142 166 98 111 138 141 177 316 142 153 63 0 1 34 4 0 9 160 285 720 1024 1144 1388 1166 1582 2085 1938 1950 1673 1829 1830 1771 1705 1892 1522 1615 1474 1482 1650 1593 1291 1283 1612 1486 1477 1761 1975 2130
27 10 25 62 2 196 94 83 146 172 147 3 0 0 59 12 20 83 260 511 878 1102 1109 1187 1337 1353 1399 1652 1936 1854 1730 1963 1994 1838 1472 1643 1680 1459 1569 1721 1817 1291 1410 1530 1506 1422 1814 1923 1922
136 50 8 0 0 278 82 336 142 359 34 11 10 0 1 18 78 171 353 584 812 1048 786 867 1014 1127 1174 1325 1611 1802 1756 1577 1549 1467 1487 1202 694 897 1056 1532 1656 1500 1197 987 1141 1538 1717 1778 2166
147 103 13 1 123 298 238 366 278 239 82 0 4 0 4 120 112 121 142 147 172 343 763 664 747 969 1065 1442 1232 1086 1384 905 982 860 598 422 424 523 1003 1459 1592 1583 1333 996 1250 1375 1591 997 1163
74 84 10 23 367 344 346 250 194 155 132 2 2 10 77 112 116 138 117 101 120 193 593 517 587 721 877 899 855 865 827 806 808 654 375 362 466 482 507 593 688 958 1290 449 82 36 286 541 812
0 0 1 0 19 68 222 204 181 125 173 1 0 1 77 99 144 101 98 102 187 167 504 416 384 513 569 682 743 684 670 589 492 392 330 287 273 305 299 315 263 342 36 438 30 2 304 512 595
0 0 0 0 0 12 91 172 305 300 377 0 3 6 40 70 133 135 129 105 145 337 365 313 239 316 350 588 515 514 470 435 217 159 108 214 236 207 195 161 11 127 88 207 32 10 275 371 678
0 0 0 0 0 26 22 34 132 546 89 0 9 1 11 31 109 128 113 26 27 167 104 110 204 142 212 426 411 460 335 414 217 108 102 179 194 107 144 170 97 242 178 172 195 165 219 242 491
0 0 0 0 148 107 373 258 126 578 7 14 3 5 0 6 81 61 45 42 18 43 44 3 134 22 161 324 300 257 227 416 337 121 69 73 235 60 109 247 220 264 88 330 384 350 320 337 342
0 0 0 105 223 320 86 24 248 521 55 0 10 30 19 0 55 59 27 27 0 0 0 0 282 53 74 170 182 105 78 161 232 121 35 0 137 226 43 140 293 91 416 213 74 191 477 256 164
0 0 0 0 278 382 154 99 176 582 272 21 0 0 8 0 26 46 1 0 12 0 1 28 121 43 71 108 150 93 38 53 110 105 79 23 291 502 73 82 239 46 107 42 30 79 312 204 106
0 0 0 0 331 365 283 179 343 471 410 189 24 1 0 0 0 19 0 0 20 14 33 53 78 0 53 39 45 15 19 63 90 115 151 259 469 268 159 314 214 87 66 82 75 116 52 136 113
0 0 0 0 0 0 0 0 266 212 577 419 111 17 5 0 0 0 0 0 12 31 36 29 29 10 0 0 0 23 80 97 129 130 387 498 423 159 112 153 140 152 34 35 80 33 107 205 2
0 0 0 0 0 0 0 40 157 169 616 500 235 48 19 0 0 0 0 0 0 17 23 13 21 1 62 0 0 60 48 78 126 222 509 560 380 2 69 230 149 26 10 207 242 100 406 70 1
0 0 0 0 0 14 145 153 420 607 405 397 327 107 9 0 0 0 0 0 0 3 1 0 4 32 69 0 3 0 16 48 153 312 475 685 444 168 114 191 211 40 14 401 395 224 77 19 2
0 0 0 0 0 0 0 0 87 307 409 281 292 107 18 1 0 0 0 14 6 18 0 0 0 29 41 0 50 66 117 107 132 215 410 772 804 463 270 203 339 292 259 339 394 555 126 16 32
0 0 0 0 0 0 0 0 0 119 347 297 325 283 104 4 0 0 0 0 18 0 0 0 0 8 17 0 11 26 37 37 20 96 418 574 681 623 406 525 668 222 446 398 413 794 269 89 162
0 0 0 0 0 0 0 0 0 142 146 104 287 442 278 148 45 25 0 4 3 0 0 0 0 0 13 0 0 0 26 27 36 44 195 327 633 692 634 818 321 217 511 618 443 653 646 660 502
0 0 0 0 0 0 0 0 0 0 0 0 40 214 446 263 146 82 0 0 4 18 0 0 0 0 4 0 0 0 0 22 46 36 44 212 500 776 800 766 364 264 495 480 314 714 451 497 887
0 0 0 0 0 0 0 0 0 0 0 0 2 89 320 358 231 139 8 0 0 0 0 0 0 0 0 0 0 0 0 14 38 49 49 105 403 739 885 820 659 497 543 447 248 621 937 733 607
0 0 0 0 0 0 0 0 0 0 0 0 0 8 196 149 191 103 51 0 0 0 0 22 0 0 0 35 0 0 0 0 7 30 66 89 307 627 906 707 774 695 553 640 632 613 639 756 1008
0 0 0 0 0 0 0 0 0 0 0 0 0 0 23 59 5 50 44 0 0 0 0 34 50 0 15 79 22 0 0 0 0 0 55 182 249 528 853 1012 844 857 1037 637 663 589 573 684 765
0 0 0 0 0 0 0 0 0 0 0 0 6 146 0 140 166 106 58 0 0 0 0 6 96 72 43 78 59 19 0 0 0 0 0 208 325 439 637 981 949 888 863 1069 852 796 721 759 760
0 0 0 0 0 0 0 0 0 0 0 0 0 173 76 16 97 177 86 24 0 0 0 0 39 66 37 41 57 15 18 36 0 0 0 0 150 278 651 699 1005 929 897 749 1093 1036 1143 812 908
CIN
-20 0 0 0 0 0 -6 -40 -19 -45 -4 -5 0 0 0 -21 -27 -105 0 0 0 -118 -28 -2 -1 0 0 0 -2 0 0 0 0 0 0 0 0 0 0 0 0 0 0 0 0 0 0 0 0
0 0 0 -13 -1 -11 -23 -38 -48 -13 -75 -17 -25 -58 -69 -130 -97 0 -85 0 -37 -93 -13 -5 -3 0 0 0 0 0 0 0 0 0 0 0 0 0 0 0 0 0 0 0 0 0 0 0 0
0 0 0 -20 -13 -9 -9 -23 -38 -82 -54 -72 -52 -128 -91 -61 0 0 0 0 -137 -34 -17 -9 -2 0 0 0 0 0 0 0 0 0 0 0 0 0 0 0 0 0 0 0 0 0 0 0 0
0 -29 -40 -90 -42 -28 -10 -30 -37 -6 -50 -53 -71 -91 -130 -36 0 -253 0 -204 -61 -30 -17 -2 -1 0 0 0 0 0 0 0 0 0 0 0 0 0 0 -1 0 0 0 0 0 0 0 0 -8
-50 -44 -24 -7 -16 -18 -22 -16 0 -2 -23 -40 -63 0 0 -10 0 0 -241 -80 -61 -45 -15 -2 0 0 0 0 0 0 0 0 0 0 0 0 0 -1 0 0 -1 0 0 0 0 0 -1 -7 -3
-85 -68 -7 -11 -10 -2 -9 -4 -1 -10 -30 -20 -138 0 0 -2 0 0 -132 -64 -56 -27 -14 -5 0 0 0 0 0 0 0 0 0 0 0 0 -1 -3 -1 -4 0 0 0 0 0 0 -1 -3 -2
-93 -12 -16 -17 -8 -18 -12 -1 -13 -29 -20 -65 0 0 -104 0 0 -167 -83 -68 -11 -4 -8 -5 -7 -2 0 0 -1 0 0 0 0 0 0 -1 -1 -1 0 0 0 0 0 0 0 0 0 -4 0
-89 -103 -73 -35 -12 -11 -33 -25 -42 -27 -38 -168 0 0 -117 -208 -146 -67 -38 -22 -1 -2 -8 -14 -11 -11 -8 -3 -1 0 0 0 0 0 0 -1 -1 -1 0 -1 0 0 0 0 -3 -4 0 -8 -5
-31 -83 -111 0 0 -19 -64 -2 -28 -35 -112 -50 -43 0 -2 -134 -67 -8 0 0 0 0 -12 -23 -18 -25 -16 -12 -5 -3 0 0 0 -2 0 -28 -56 -32 -16 -2 -1 0 -1 -13 -13 -10 -12 -14 -4
-48 -67 -86 -36 -34 -40 -56 -17 -17 -13 -45 0 -213 -74 0 -48 -49 -64 -70 -81 -72 -25 -3 -32 -34 -35 -16 -7 -20 -16 -9 -31 -25 -38 -65 -95 -94 -73 -24 -3 0 0 -1 -20 -16 -16 -23 -98 -85
-86 -85 -114 -78 -35 -51 -42 -46 -42 -36 -27 -17 -40 -186 -90 -51 -62 -59 -84 -102 -109 -65 -22 -37 -47 -52 -30 -26 -47 -50 -47 -49 -55 -69 -102 -109 -111 -98 -92 -83 -75 -66 -39 -134 -195 -26 -198 -151 -126
-129 0 -48 0 -96 -80 -52 -48 -46 -51 -52 -26 0 -66 -120 -76 -70 -90 -93 -94 -95 -74 -43 -61 -66 -60 -74 -56 -62 -72 -69 -82 -98 -109 -124 -125 -139 -128 -127 -125 -139 -135 -205 -144 -89 -27 -183 -163 -143
0 0 0 0 0 -135 -95 -61 -29 -20 -45 0 -199 -143 -83 -84 -74 -57 -79 -96 -101 -64 -63 -86 -90 -89 -106 -67 -88 -96 -93 -100 -144 -159 -178 -164 -147 -142 -172 -151 -40 -176 -214 -189 -148 -226 -174 -169 -132
0 0 0 0 0 -118 -181 -149 -58 -17 -101 0 -203 -64 -112 -99 -89 -51 -60 -129 -136 -107 -129 -144 -104 -124 -125 -104 -104 -104 -118 -100 -134 -161 -187 -167 -171 -200 -184 -183 -184 -149 -166 -176 -191 -186 -191 -180 -145
0 0 0 0 -165 -153 -80 -72 -106 -43 -177 -174 -136 -112 0 -94 -77 -105 -133 -174 -177 -161 -168 -13 -134 -78 -132 -124 -126 -137 -133 -119 -117 -170 -229 -198 -147 -187 -184 -167 -187 -169 -211 -157 -169 -176 -177 -159 -146
0 0 0 -115 -153 -93 -117 -84 -133 -58 -129 0 -173 -183 -138 0 -121 -110 -142 -166 0 0 0 0 -77 -81 -163 -147 -152 -178 -190 -158 -142 -161 -239 0 -177 -164 -216 -192 -172 -232 -173 -203 -248 -198 -154 -168 -156
0 0 0 0 -112 -92 -91 -74 -160 -81 -94 -183 0 -40 -130 0 -152 -132 -100 0 -181 0 -24 -72 -129 -133 -187 -166 -165 -190 -206 -214 -200 -180 -229 -215 -149 -123 -207 -204 -185 -238 -247 -262 -244 -277 -174 -159 -186
0 0 0 0 -87 -71 -80 -120 -113 -110 -98 -117 -159 -171 0 0 -8 -169 0 0 -169 -203 -206 -165 -162 0 -182 -180 -201 -55 -158 -252 -236 -202 -190 -160 -142 -146 -181 -163 -190 -224 -223 -254 -249 -222 -321 -192 -188
0 0 0 0 0 -1 0 0 -144 -147 -67 -83 -120 -175 -192 0 0 -1 0 0 -162 -182 -196 -199 -194 -96 0 0 0 -126 -167 -203 -204 -212 -133 -133 -151 -167 -213 -185 -189 -201 -229 -219 -208 -227 -190 -155 -78
0 0 0 0 0 0 0 -38 -187 -177 -82 -105 -153 -191 -163 0 0 0 0 0 0 -193 -205 -248 -214 -33 -209 0 0 -195 -215 -224 -211 -191 -125 -135 -141 -123 -199 -154 -172 -221 -241 -177 -171 -198 -144 -240 -71
0 0 0 0 0 -30 -117 -111 -102 -74 -104 -84 -101 -148 -159 0 0 0 0 0 0 -134 -54 0 -158 -245 -196 0 -42 0 -129 -223 -167 -143 -129 -122 -137 -176 -165 -148 -162 -200 -261 -141 -152 -167 -192 -167 -98
0 0 0 0 0 0 0 0 -160 -123 -115 -151 -115 -178 -208 -21 0 0 0 -190 -122 -236 0 0 0 -240 -211 0 -194 -171 -166 -168 -182 -138 -161 -120 -110 -134 -150 -154 -151 -165 -180 -165 -154 -145 -200 -254 -167
0 0 0 0 0 0 0 0 0 -202 -165 -216 -174 -185 -189 -41 0 0 0 0 -134 0 0 0 0 -262 -211 0 -60 -182 -193 -195 -246 -249 -148 -139 -131 -134 -141 -127 -118 -169 -163 -163 -154 -128 -175 -230 -186
0 0 0 0 0 0 0 0 0 -219 -247 -260 -236 -205 -210 -220 -240 -148 0 -193 -109 0 0 0 0 0 -240 0 0 0 -123 -205 -213 -218 -163 -172 -133 -133 -129 -108 -151 -158 -145 -142 -150 -139 -144 -159 -172
0 0 0 0 0 0 0 0 0 0 0 0 -297 -218 -198 -236 -244 -263 0 0 -48 -262 0 0 0 0 -218 0 0 0 0 -216 -196 -240 -241 -197 -150 -124 -125 -129 -165 -161 -143 -157 -180 -140 -161 -158 -126
0 0 0 0 0 0 0 0 0 0 0 0 -78 -315 -232 -205 -202 -220 -385 0 0 0 0 0 0 0 0 0 0 0 0 -238 -235 -283 -293 -249 -176 -143 -145 -138 -141 -152 -136 -143 -183 -134 -114 -136 -138
0 0 0 0 0 0 0 0 0 0 0 0 0 -136 -323 -352 -295 -269 -278 0 0 0 0 -352 0 0 0 -344 0 0 0 0 -89 -212 -290 -300 -222 -159 -133 -155 -139 -137 -135 -123 -117 -114 -120 -128 -114
0 0 0 0 0 0 0 0 0 0 0 0 0 0 -350 -397 -464 -341 -260 0 0 0 0 -332 -309 0 -297 -325 -276 0 0 0 0 0 -295 -252 -230 -186 -151 -129 -139 -136 -104 -141 -126 -123 -121 -109 -110
0 0 0 0 0 0 0 0 0 0 0 0 -22 -360 0 -366 -335 -323 -334 0 0 0 0 -101 -270 -275 -287 -277 -307 -295 0 0 0 0 0 -264 -229 -202 -170 -140 -133 -139 -138 -117 -126 -126 -118 -108 -103
0 0 0 0 0 0 0 0 0 0 0 0 0 -267 -412 -514 -408 -311 -348 -362 0 0 0 0 -270 -242 -276 -292 -289 -304 -288 -264 0 0 0 -4 -272 -251 -183 -169 -136 -141 -138 -154 -109 -111 -92 -101 -90
Wind_Speed
6 4 1 2 1 2 3 1 3 3 3 0 15 6 8 4 5 3 3 5 14 9 5 7 10 12 13 11 11 10 11 10 10 11 11 10 11 10 10 11 10 8 11 10 9 10 11 12 12
5 4 1 1 1 2 2 4 3 11 9 12 7 7 5 3 3 7 6 10 15 10 6 6 11 13 13 12 11 10 11 10 8 11 10 9 10 9 10 11 10 11 9 11 10 8 10 11 11
5 3 2 1 1 3 2 3 6 3 14 2 4 8 4 2 6 11 10 14 13 8 6 7 11 13 13 13 11 10 10 10 9 9 9 8 10 9 11 10 10 11 11 12 10 9 11 9 10
4 0 1 1 4 4 4 8 1 6 6 7 3 8 4 3 10 6 13 15 12 8 6 10 13 13 13 12 10 10 10 9 8 8 8 8 8 8 9 9 10 10 11 11 11 11 10 8 7
1 1 0 2 3 2 2 5 2 7 5 2 3 5 6 3 11 15 13 13 12 7 6 8 13 12 12 11 10 9 10 10 8 7 7 7 7 7 8 8 9 9 12 10 12 10 10 7 10
1 1 1 3 2 3 3 2 8 4 6 8 8 9 4 11 14 12 11 11 9 8 6 5 12 11 11 11 11 10 10 10 9 8 7 7 7 7 8 9 10 12 11 12 11 10 10 10 12
1 1 2 3 2 2 3 2 2 6 6 6 13 6 5 10 13 11 10 10 8 6 5 5 5 9 12 11 11 9 10 9 9 7 9 7 6 8 7 10 10 12 12 12 10 9 10 12 12
2 0 3 3 4 3 3 3 1 4 4 7 11 6 8 11 14 11 10 9 6 5 5 5 5 5 5 4 11 10 10 8 8 9 8 6 7 8 8 8 8 11 12 11 10 9 11 12 10
2 1 2 3 3 3 8 4 5 4 6 3 4 9 16 17 16 13 11 8 8 5 3 5 4 5 5 4 7 10 10 9 9 7 8 7 4 5 6 6 9 10 9 10 9 9 9 9 9
1 0 5 3 1 3 8 8 9 5 7 8 12 20 19 17 16 16 15 15 14 13 6 4 4 5 4 3 6 5 4 4 4 4 5 3 3 3 3 5 9 10 9 8 7 7 8 6 3
3 4 2 1 3 6 7 3 7 6 5 6 21 24 19 17 15 15 16 14 14 13 10 5 5 4 5 4 3 2 2 2 2 4 3 2 2 3 3 3 3 3 7 3 4 4 3 2 2
1 7 6 3 5 4 5 7 3 7 2 18 22 22 19 19 17 18 15 11 10 13 11 6 5 4 5 3 3 3 3 2 1 1 2 2 1 2 3 2 3 3 2 2 3 2 2 2 0
2 6 7 8 4 3 7 5 4 6 5 19 21 18 18 17 16 12 11 9 10 11 6 7 5 5 4 5 3 3 3 2 2 1 0 1 1 2 2 2 2 2 2 1 2 2 2 3 3
3 6 11 9 2 6 6 3 3 4 11 17 21 18 17 17 16 11 11 11 10 9 7 6 6 5 4 4 4 3 3 3 2 1 1 1 2 1 0 2 1 2 2 1 1 1 1 2 2
5 4 7 4 3 4 7 4 6 10 17 21 21 17 16 16 15 15 14 13 13 10 9 8 7 6 5 5 4 4 3 3 2 2 3 2 2 3 3 1 2 1 2 2 1 1 1 3 3
3 3 3 2 3 3 2 4 3 10 16 20 23 19 17 16 18 14 14 12 11 9 10 9 9 8 7 5 4 3 3 3 2 2 2 3 3 3 4 3 2 1 2 3 2 1 1 2 2
5 2 0 4 5 4 2 3 5 9 14 18 18 17 17 16 15 15 14 13 13 12 11 11 8 9 8 6 4 4 4 3 3 2 3 3 3 4 3 3 2 1 2 3 2 1 1 2 1
3 3 2 2 3 1 3 8 6 10 12 14 16 18 17 17 17 15 15 14 13 10 10 9 8 8 7 4 2 2 1 2 3 3 3 5 3 3 4 2 3 2 2 2 2 2 2 1 1
2 3 2 3 3 2 5 7 10 10 9 12 13 13 16 17 15 14 13 14 13 10 10 9 9 8 7 3 3 2 3 2 2 3 5 4 3 4 4 3 3 3 3 2 1 2 2 1 1
4 2 2 4 3 5 1 5 5 11 11 12 15 16 13 12 13 13 14 15 15 15 14 10 10 9 7 4 3 3 3 2 1 2 2 4 3 4 4 4 3 3 3 3 2 2 1 1 1
2 4 2 3 5 2 2 2 3 3 1 6 9 12 10 15 15 17 15 16 15 15 15 14 14 12 9 6 4 3 4 3 3 1 2 3 4 4 4 5 4 4 3 3 3 2 2 2 1
1 6 4 2 3 3 1 4 3 5 6 5 9 10 12 13 14 15 16 15 15 16 14 14 13 12 10 8 6 6 4 4 3 3 2 3 5 4 3 4 4 4 3 3 2 2 2 3 2
6 7 6 4 3 2 3 4 5 3 7 15 12 14 15 13 15 14 15 16 15 13 14 14 13 11 10 11 9 7 5 3 3 2 5 4 3 4 4 4 4 3 3 3 3 2 2 2 2
5 5 8 6 4 2 6 6 6 3 6 4 15 14 16 15 15 13 14 15 14 13 13 12 13 12 10 11 9 10 10 7 4 4 4 3 2 2 4 4 3 3 3 4 3 2 3 3 2
5 7 2 3 2 6 1 4 5 8 8 12 11 16 14 16 17 15 17 16 15 14 14 13 14 14 13 12 10 10 10 10 9 6 5 4 3 3 5 4 4 4 4 4 4 4 3 3 2
7 9 7 6 6 5 1 5 4 4 9 9 4 11 13 15 14 16 14 16 16 17 17 16 15 14 13 13 12 9 8 6 5 6 4 5 5 4 5 4 4 5 4 4 4 2 2 3 2
4 3 3 8 2 3 3 5 4 18 16 19 15 5 13 16 17 14 14 15 15 16 17 18 16 15 14 15 12 10 9 8 8 7 5 4 5 4 5 6 5 5 5 5 4 3 4 3 3
6 1 3 4 5 3 3 3 4 14 17 20 20 12 8 10 13 13 10 14 13 13 15 16 16 18 16 15 13 11 11 10 9 7 7 6 5 5 5 6 6 6 5 5 5 4 3 4 3
7 6 6 5 3 7 4 3 5 7 10 16 16 15 5 7 6 5 6 7 10 11 12 13 14 15 13 12 11 10 9 9 7 9 9 8 5 6 6 6 6 7 7 6 5 5 4 5 4
6 3 4 5 3 2 4 2 5 8 9 12 17 17 18 14 10 6 6 6 3 4 6 11 13 13 13 13 12 12 11 10 10 10 10 9 9 6 7 7 7 7 7 7 8 7 6 6 6
Wind_Direction
136 121 132 39 37 105 265 297 321 40 100 356 147 151 161 101 182 192 130 149 126 134 157 146 139 140 129 129 120 117 111 109 106 102 103 99 105 103 105 104 100 98 112 113 107 109 107 111 108
121 139 14 74 33 297 271 98 346 42 26 137 83 85 58 97 88 122 119 149 127 139 144 147 141 138 138 132 124 124 116 112 100 95 102 98 101 101 94 95 97 91 94 106 105 104 101 100 104
152 242 87 56 360 242 315 115 237 43 67 298 94 38 39 46 105 143 135 135 126 127 133 151 137 138 141 135 131 129 119 114 106 102 100 95 93 99 97 102 95 88 89 97 95 95 98 104 105
170 59 13 63 248 246 198 135 229 156 74 56 92 79 66 345 143 130 135 131 124 124 129 149 143 142 141 143 135 128 128 117 117 114 106 101 99 98 94 93 105 99 88 81 91 95 94 93 110
335 241 282 255 260 317 24 155 263 148 126 102 349 70 97 346 110 128 134 130 128 123 139 143 151 148 142 141 143 139 133 121 124 109 102 113 98 97 97 95 86 90 95 89 93 94 85 97 101
43 353 280 304 302 97 73 157 154 114 142 152 100 114 129 127 125 138 131 126 127 133 131 145 144 148 151 146 149 145 133 126 119 109 116 97 96 92 90 86 83 86 94 99 98 94 85 91 108
219 233 277 287 324 112 142 109 235 147 167 136 143 105 107 140 137 134 125 118 121 122 122 134 154 163 158 153 145 138 135 124 117 117 110 107 100 93 87 78 86 91 98 102 102 87 91 94 101
189 172 288 288 327 68 106 133 148 118 75 106 142 144 154 155 139 128 121 110 109 109 127 132 138 132 124 137 135 141 125 130 116 127 115 120 91 92 79 77 93 95 99 105 104 98 96 96 101
249 287 303 284 0 121 147 123 128 256 142 138 140 136 136 144 132 129 128 122 135 128 130 133 134 124 133 135 146 129 136 126 118 118 114 59 60 61 69 88 91 101 103 108 109 108 103 92 86
172 150 224 242 152 145 161 146 170 175 161 71 89 114 137 136 143 147 155 158 162 165 167 146 147 135 141 129 99 98 99 85 85 86 87 80 73 81 93 95 91 101 101 101 109 106 82 72 74
206 224 220 253 99 131 165 133 155 159 167 151 144 142 144 147 153 158 163 168 168 170 172 165 151 156 139 112 116 107 98 96 96 107 102 96 72 54 51 47 57 58 78 55 39 44 41 54 82
271 248 262 273 133 122 152 147 196 179 125 144 152 147 148 156 162 168 168 166 162 173 175 165 159 159 139 130 132 126 129 128 133 147 122 73 65 62 85 76 71 74 51 72 62 65 45 21 12
211 273 272 261 209 183 136 143 172 183 74 139 144 149 157 159 165 170 171 167 161 169 173 173 155 158 155 138 139 133 146 149 161 165 251 28 288 209 129 116 116 108 85 75 88 74 70 13 13
238 239 273 277 344 149 130 157 168 160 122 137 152 158 164 167 167 162 170 170 173 168 174 166 162 152 161 156 154 166 154 158 173 204 244 304 250 221 169 148 147 126 132 164 118 89 50 22 38
260 301 306 317 102 136 133 115 223 146 150 149 168 166 166 171 167 176 177 175 176 177 161 176 159 154 174 179 171 160 184 171 197 203 206 234 258 221 192 170 268 109 104 163 145 109 38 44 43
3 44 355 9 132 102 32 273 104 153 166 165 169 171 173 175 179 178 183 172 170 171 165 173 179 167 176 182 180 175 182 192 212 202 189 194 265 249 169 162 237 110 138 146 115 87 49 44 36
8 156 226 349 195 100 103 265 166 174 174 172 171 173 177 176 183 183 181 174 173 173 162 176 172 170 177 181 183 184 189 209 216 181 209 198 232 226 128 168 176 141 81 70 83 71 99 63 28
177 112 40 350 218 258 191 250 166 194 180 181 183 174 174 183 188 185 180 180 170 173 172 176 172 162 165 160 141 121 194 214 197 202 198 213 191 169 129 152 139 130 92 62 54 100 73 125 148
171 133 142 269 241 223 239 262 197 195 190 180 189 188 179 185 184 184 178 177 172 164 164 172 170 171 160 151 157 154 190 174 206 193 188 203 201 174 128 141 133 127 120 145 146 91 96 70 94
208 141 281 278 197 174 170 284 224 182 200 192 177 192 184 166 171 182 180 176 174 173 182 173 182 174 184 169 156 149 150 157 145 168 180 193 183 177 151 145 153 166 131 147 153 159 131 77 70
199 153 190 225 326 56 168 4 131 177 155 188 191 193 194 181 172 186 185 177 176 182 184 178 185 180 187 165 125 89 97 78 87 161 181 201 186 170 162 167 158 164 150 165 155 117 114 133 72
219 199 173 249 50 260 25 281 283 165 208 227 195 182 188 190 181 181 186 180 180 186 185 183 181 180 184 168 168 166 153 149 184 183 168 179 193 181 180 174 171 162 159 154 140 136 120 121 114
207 173 175 177 189 16 335 80 259 140 231 228 213 199 199 196 191 179 185 181 187 184 183 187 179 178 181 185 180 169 159 150 145 149 166 170 204 190 189 168 178 180 173 159 170 139 126 116 135
135 106 38 43 88 22 226 131 291 223 263 297 211 211 198 197 195 185 182 181 187 184 184 179 175 184 182 185 187 179 172 164 146 162 175 180 186 209 204 177 189 191 187 175 179 170 175 139 127
94 82 346 32 55 207 125 101 222 289 297 270 203 213 205 193 190 186 179 182 184 183 182 185 183 186 188 189 191 192 182 173 178 175 174 170 179 195 215 186 172 184 188 194 163 161 178 173 170
181 153 157 171 175 202 30 208 206 336 301 358 280 204 199 197 196 199 184 186 184 184 185 187 186 191 185 191 198 197 182 181 181 178 173 185 196 205 171 189 193 187 180 172 179 166 189 178 192
189 143 189 105 20 81 251 322 326 351 356 356 1 217 200 201 198 187 184 186 186 187 187 187 189 195 192 194 195 194 185 181 190 183 178 179 191 196 181 182 194 190 190 175 173 195 202 205 193
93 57 89 12 132 180 0 40 312 343 339 339 348 332 250 203 197 197 191 185 189 189 189 190 193 194 196 194 192 197 195 195 189 172 183 191 195 195 176 185 191 191 193 183 182 183 192 202 233
13 12 24 111 113 154 136 279 339 319 325 333 349 346 279 185 189 183 185 186 183 184 187 194 196 198 196 202 195 194 195 193 192 192 188 190 179 192 193 188 193 197 192 195 194 197 193 204 213
71 88 117 122 213 51 116 263 13 344 341 359 5 34 44 47 43 73 108 99 123 165 172 188 196 200 200 197 197 197 193 191 198 197 196 186 198 181 194 185 195 197 200 193 202 206 196 203 219